RH
95 93 92 87 87 90 92 91 90 90 86 84 84 85 86 85 86 84 82 80 76 72 68 68 73 69 68 70 72 74 77 78 76 72 68 68 67 68 69 70 70 64 68
91 93 94 92 92 91 92 90 88 89 88 85 84 86 86 86 85 83 81 76 72 71 67 68 70 68 70 73 76 77 76 79 78 74 69 68 67 67 69 69 73 68 69
92 93 92 94 93 91 90 89 88 88 88 86 86 86 85 85 84 80 77 72 73 72 68 70 71 72 72 75 76 74 74 75 76 72 68 68 65 66 69 69 71 65 72
83 88 92 93 92 92 90 88 88 87 87 87 86 85 85 85 83 79 75 74 75 74 70 70 72 75 78 79 81 78 72 72 72 72 68 66 60 66 67 69 68 73 72
86 91 92 90 90 91 92 90 87 86 86 87 85 85 84 84 83 80 76 74 75 74 70 69 70 71 75 82 80 79 75 74 73 72 79 75 66 64 67 69 71 73 73
92 91 96 91 85 83 86 86 87 86 86 87 85 84 84 85 83 81 78 74 75 74 68 68 66 73 82 83 82 81 81 77 78 84 74 66 65 65 66 68 68 68 68
92 95 92 92 90 84 85 89 86 87 87 86 86 85 85 85 84 82 79 75 75 75 74 69 71 83 84 82 82 83 82 79 77 79 81 79 63 65 66 67 67 67 67
97 93 94 92 90 84 82 89 92 88 87 86 87 86 86 85 85 84 82 80 79 80 77 75 75 81 82 82 84 84 82 78 76 83 83 74 64 64 65 66 66 66 66
97 96 97 91 93 88 86 88 91 89 88 88 89 89 87 89 88 86 85 84 83 81 76 74 74 79 81 82 83 85 85 83 91 83 71 76 64 62 63 64 65 65 64
97 97 98 94 94 93 90 89 91 92 91 90 92 94 95 93 92 90 87 84 81 79 74 73 75 81 84 84 85 87 88 87 95 93 90 74 65 61 62 63 63 63 63
98 99 98 96 95 94 94 96 92 91 94 94 96 97 95 88 94 91 87 83 80 79 78 75 74 82 84 84 84 82 79 86 93 97 96 74 65 61 61 62 62 62 62
98 95 96 98 96 94 95 95 94 91 92 88 89 89 85 87 92 89 89 87 84 81 81 75 70 67 62 68 70 68 68 74 83 90 95 75 64 62 61 61 61 61 60
96 98 98 99 97 94 90 93 96 98 97 91 91 83 84 89 93 90 88 82 79 81 68 68 65 50 52 57 58 59 60 62 76 83 81 77 65 60 62 60 59 58 58
97 97 99 96 96 97 93 95 96 97 90 90 89 87 91 91 93 89 87 87 81 81 74 75 66 56 53 54 58 61 63 74 87 93 86 81 71 62 59 59 59 58 57
99 99 99 96 96 97 96 96 96 92 83 84 89 92 91 92 92 88 92 82 78 83 82 68 58 53 52 51 57 62 66 72 77 90 96 82 77 68 59 61 61 59 56
98 98 95 95 96 94 95 96 95 79 87 85 89 90 88 89 91 87 85 78 81 83 83 62 57 54 53 52 54 60 67 68 74 83 94 94 82 74 67 60 60 58 57
97 95 93 91 90 91 92 87 86 86 88 87 90 90 89 90 89 78 81 76 79 85 80 69 60 59 56 50 52 56 68 68 69 77 90 94 88 74 70 65 57 53 51
97 94 89 85 87 84 81 85 89 90 93 91 88 90 90 88 81 87 90 83 86 86 81 71 68 64 63 58 58 56 56 67 70 76 84 89 89 85 80 76 65 52 51
92 95 95 91 91 87 92 95 94 92 92 93 94 91 91 90 87 86 92 90 89 89 86 70 70 64 65 63 58 64 63 57 61 66 78 82 82 88 88 80 71 65 55
95 94 95 94 92 91 92 93 94 91 91 89 90 90 89 91 91 93 93 93 92 87 83 72 66 70 68 67 49 56 66 64 60 72 77 68 74 78 77 82 80 73 66
92 92 93 94 93 89 91 82 83 91 93 91 87 84 83 89 94 95 95 94 88 80 77 70 71 71 78 78 76 81 82 78 69 67 64 64 61 68 73 73 76 66 68
91 88 89 89 91 85 81 61 65 74 83 87 88 86 86 85 94 93 94 94 84 79 77 73 71 77 77 82 78 83 79 76 81 71 68 64 64 63 65 63 65 59 63
91 88 84 87 88 79 72 65 67 77 90 89 89 91 88 87 88 93 94 92 89 81 76 72 73 70 78 86 81 76 83 77 80 72 74 78 73 75 69 64 62 60 64
86 90 88 88 87 84 80 72 72 67 67 64 84 88 92 90 90 90 90 91 88 86 83 74 72 76 78 79 88 77 76 76 72 70 67 68 74 72 73 73 70 67 64
84 96 96 88 86 80 84 83 78 76 78 91 95 92 94 94 89 86 91 90 90 83 78 81 81 76 72 75 77 83 78 79 76 71 70 64 67 66 66 76 77 73 63
97 97 97 92 86 82 82 82 85 80 86 91 91 96 96 94 94 95 96 91 89 88 89 87 86 81 76 79 75 73 72 71 74 74 75 72 67 63 63 60 58 57 58
Wind_Speed
4 6 15 11 16 22 27 23 19 22 19 20 24 25 24 24 24 23 22 22 22 22 25 25 24 25 26 26 24 23 22 22 21 22 23 22 21 22 22 20 18 14 21
5 11 12 15 18 15 27 24 21 24 21 21 23 24 24 24 25 23 22 23 23 24 27 27 25 27 26 24 23 22 22 21 20 20 22 22 21 22 22 21 18 18 21
3 8 12 19 18 16 20 26 24 20 26 21 23 24 25 25 26 24 24 24 23 24 27 27 26 26 25 25 20 21 21 21 20 20 19 9 13 21 22 21 20 21 22
2 10 9 20 22 17 14 20 24 24 25 24 24 25 25 25 25 24 25 25 23 24 26 26 25 22 19 14 17 19 20 20 20 17 9 9 13 22 21 22 22 22 22
4 1 9 11 20 22 21 6 17 23 22 23 23 24 25 25 25 23 23 23 24 24 26 24 22 17 14 16 22 19 21 20 18 13 8 7 10 18 21 21 19 21 21
5 3 14 14 14 27 23 17 6 20 22 23 22 22 24 24 25 23 22 23 23 24 24 22 19 15 14 19 22 19 19 18 13 7 8 13 10 20 20 21 21 21 20
4 6 6 15 17 20 24 24 14 11 21 24 22 21 22 23 23 23 23 23 22 22 22 20 18 19 25 22 21 19 18 16 8 8 7 6 11 20 20 20 21 21 21
5 7 5 10 15 16 25 29 23 14 20 21 22 22 23 22 20 19 23 22 21 20 20 18 18 21 23 22 20 18 16 15 9 7 6 7 17 19 20 20 20 20 20
3 4 6 4 9 19 24 24 26 21 19 22 19 20 22 20 19 18 19 21 20 19 20 19 17 19 21 21 19 17 15 14 7 5 7 5 17 18 18 19 19 19 19
2 3 5 7 13 15 16 24 23 21 16 22 19 18 17 17 18 17 17 19 19 19 20 20 17 19 20 19 18 17 13 14 6 6 4 6 16 17 17 17 18 18 18
3 5 8 4 5 12 18 21 23 21 12 20 18 18 18 12 11 13 13 16 17 17 19 19 18 20 19 17 17 14 12 4 5 3 3 13 15 16 16 16 16 17 17
5 4 4 11 14 14 14 18 16 13 9 9 13 14 11 12 9 10 12 15 15 16 18 19 19 17 12 6 7 10 4 5 4 4 3 12 14 15 15 15 15 15 15
1 1 5 4 16 32 16 12 9 9 5 5 12 12 11 9 8 7 7 6 7 10 7 9 9 7 8 5 5 4 6 4 3 2 4 11 13 13 15 14 13 13 13
2 3 5 5 15 18 17 15 15 10 6 6 9 12 9 8 8 7 5 6 6 3 7 5 5 7 9 6 6 7 6 5 3 2 3 10 12 13 12 12 11 11 11
4 2 5 5 10 15 14 12 11 8 8 9 8 8 9 9 8 7 5 4 6 5 5 6 6 7 8 6 5 6 6 6 5 2 1 8 11 13 11 12 11 10 9
5 5 5 8 7 12 15 11 7 7 6 8 7 6 6 8 8 8 6 4 5 4 3 7 6 6 6 5 5 6 6 5 5 4 3 4 9 9 10 10 10 8 8
6 7 8 9 10 10 13 11 7 7 7 7 6 7 6 6 7 11 7 5 6 4 6 6 4 4 6 4 6 5 5 6 5 5 4 4 5 8 8 8 9 8 6
6 6 8 8 10 12 10 7 6 6 5 5 6 6 6 6 7 8 7 4 5 4 5 5 5 4 5 3 3 4 4 3 5 5 4 4 4 3 6 9 9 8 7
8 8 8 9 12 12 8 5 5 6 6 5 4 6 6 6 6 7 5 4 6 5 4 5 3 4 4 3 4 3 4 4 5 4 5 5 5 5 4 9 10 8 8
8 8 7 7 11 9 8 5 4 4 4 5 4 4 7 6 6 5 5 5 5 5 4 3 5 2 3 4 3 3 2 2 2 3 4 4 5 5 5 5 4 5 9
7 10 10 8 8 9 7 6 5 3 3 4 2 4 6 7 6 6 4 5 5 7 7 6 3 4 1 3 4 1 1 2 3 4 4 4 5 5 5 5 4 3 4
10 11 11 11 9 7 4 5 3 5 4 3 2 3 3 7 7 7 6 6 6 5 6 6 6 3 2 4 4 3 1 2 2 3 3 4 6 4 5 6 6 6 5
10 12 12 11 9 7 8 4 3 3 2 3 2 2 4 5 6 7 6 6 7 6 7 8 6 7 5 3 2 5 2 5 0 0 3 3 4 3 4 4 4 4 4
12 9 11 12 12 7 6 8 9 9 10 8 4 3 4 4 4 5 8 7 8 5 6 8 6 5 6 6 1 2 1 5 4 1 1 2 3 5 5 4 4 4 5
13 11 9 11 12 10 7 6 7 7 5 4 3 6 6 5 9 11 10 11 9 8 9 9 7 6 4 5 4 3 1 1 3 3 3 3 1 2 2 4 5 4 4
10 10 9 11 12 11 9 9 8 9 7 6 7 5 5 6 7 9 9 9 8 8 8 8 7 8 8 4 4 4 3 2 2 3 2 2 3 2 2 2 4 4 4
Wind_Direction
196 154 150 143 121 142 132 128 117 108 113 114 115 119 121 120 119 117 115 113 111 110 109 108 108 106 102 102 100 96 91 87 82 81 81 80 78 78 76 73 69 75 72
137 144 130 113 115 129 121 124 120 123 124 124 123 122 125 123 121 121 117 116 115 116 114 113 112 107 105 103 102 100 97 91 86 82 81 79 78 76 76 75 74 68 71
56 131 132 123 124 129 121 123 130 142 130 133 131 131 132 132 126 125 123 120 121 119 118 117 114 111 111 105 105 102 97 92 90 87 80 76 76 77 74 71 71 71 64
79 144 152 137 124 118 120 134 137 135 137 139 142 140 137 132 129 130 126 124 122 123 121 119 117 117 117 101 113 102 98 93 89 85 75 73 75 74 74 75 71 65 66
175 10 148 147 138 124 113 107 136 136 139 139 144 140 137 133 132 129 126 127 128 126 123 120 116 116 113 105 114 107 102 96 93 83 76 71 78 79 77 73 69 67 67
195 74 147 148 151 139 137 120 229 144 144 140 142 141 138 138 135 130 130 128 128 122 120 115 111 112 113 123 114 109 100 95 86 71 75 84 82 85 80 79 76 72 69
167 164 167 177 165 165 138 153 193 185 145 140 144 143 142 139 136 136 130 127 126 121 117 114 105 97 114 116 111 107 104 101 92 83 83 84 87 85 81 78 77 76 74
185 175 169 176 184 187 158 158 162 207 150 143 147 147 142 138 139 134 129 126 124 117 114 107 96 107 110 111 111 113 113 110 98 95 84 86 90 89 87 83 81 80 79
69 164 150 159 189 183 175 165 160 184 158 141 153 144 141 141 138 134 126 122 121 120 113 106 95 104 114 118 117 110 105 106 94 86 87 80 94 93 95 92 89 84 82
146 239 236 182 181 183 177 166 159 164 168 145 146 135 132 131 131 132 125 124 125 122 115 106 104 110 118 114 113 107 110 107 98 100 101 105 101 99 98 96 95 91 84
193 198 243 274 297 192 172 176 158 158 169 139 133 128 130 139 133 129 127 127 124 116 104 105 97 103 105 107 104 103 101 93 99 103 110 112 106 102 99 97 97 96 92
195 208 219 221 223 187 172 152 144 144 149 159 142 142 137 142 137 129 128 127 123 111 104 99 101 97 100 104 101 106 98 94 93 112 112 116 112 107 105 103 99 98 94
236 325 292 323 324 173 183 176 143 137 186 143 142 145 145 139 134 130 128 128 124 111 111 106 109 104 104 112 100 107 93 88 88 89 116 128 115 114 112 106 103 100 101
203 352 5 13 45 77 133 146 128 146 170 162 148 144 149 144 140 142 132 143 127 117 113 105 104 115 103 108 129 109 110 107 112 104 120 135 124 122 113 113 111 106 99
127 90 49 46 93 89 71 98 104 148 168 153 143 146 148 147 145 141 117 140 136 118 118 122 115 108 107 118 114 124 121 121 123 116 113 146 131 134 134 134 128 116 103
120 111 90 82 105 121 129 118 136 161 156 145 140 150 151 146 149 159 117 157 114 106 140 118 135 125 117 122 133 138 128 131 126 123 100 103 116 130 142 144 137 133 130
132 129 123 121 120 125 126 136 156 145 140 134 141 125 125 144 160 151 132 176 136 142 131 97 104 103 108 124 130 125 130 146 140 142 124 110 110 127 133 137 134 133 128
115 116 129 133 128 131 132 130 131 115 109 130 144 130 134 128 157 120 129 155 136 138 138 136 142 102 105 146 138 137 136 153 150 155 148 150 152 156 147 144 148 150 159
130 123 121 130 127 126 98 75 90 100 124 135 120 141 138 138 117 136 130 142 143 139 151 148 107 124 146 153 140 143 160 176 171 166 178 180 186 178 173 176 168 169 182
127 110 111 117 119 114 109 93 68 89 101 92 117 129 138 142 141 128 136 162 150 147 151 132 143 121 152 163 133 146 207 189 166 196 205 192 201 198 189 192 176 190 194
131 132 129 128 131 133 125 139 134 120 107 62 137 155 178 141 148 147 168 157 164 172 173 165 123 140 133 152 106 50 314 259 218 207 215 221 213 209 205 200 192 200 214
153 154 148 146 150 139 152 162 141 141 136 219 170 193 202 161 157 170 173 181 184 153 168 165 145 138 128 189 137 106 190 322 277 224 205 220 233 228 220 213 201 206 209
160 164 163 156 161 169 173 156 135 78 62 208 215 188 230 208 175 159 180 181 186 194 185 177 168 159 156 212 209 144 119 220 66 98 223 228 234 240 242 233 224 222 234
178 174 165 163 168 168 177 176 175 190 200 211 190 174 203 215 213 198 207 196 189 171 176 191 176 175 143 173 214 190 81 145 171 208 263 209 199 221 221 221 206 217 208
185 180 173 169 174 180 185 191 183 188 201 190 190 184 190 196 214 216 190 194 190 190 199 188 174 192 188 162 167 140 147 83 80 119 219 257 315 231 220 181 190 191 193
175 182 181 176 185 189 193 207 200 205 202 206 228 207 206 204 207 210 191 194 193 194 187 191 184 200 210 177 145 128 122 133 175 152 170 217 204 262 257 213 189 192 191